Regional Weather Roundup
Issued by NWS Newport/Morehead, NC

Current Version | Previous Version | Graphics & Text | Print | Product List | Glossary Off
Versions: 1 2 3 4 5 6 7 8 9 10 11 12 13 14 15 16 17 18 19 20 21 22 23 24 25 26 27 28 29 30 31 32 33 34 35 36 37 38 39 40 41 42 43 44 45 46 47 48 49 50

000
ASUS42 KMHX 251825
RWRMHX
WEATHER ROUNDUP FOR EASTERN NORTH CAROLINA
NATIONAL WEATHER SERVICE NEWPORT/MOREHEAD CITY NC
200 PM EDT SUN SEP 25 2016

NOTE: "FAIR" INDICATES FEW OR NO CLOUDS BELOW 12,000 FEET
WITH NO SIGNIFICANT WEATHER AND/OR OBSTRUCTIONS TO VISIBILITY

NCZ015>017-031-032-045>047-102-103-251900-
NORTH COAST

CITY           SKY/WX    TMP DP  RH WIND       PRES   REMARKS
EDENTON        CLOUDY    75  58  56 E6        30.16F
ELIZABETH CITY PTSUNNY   74  57  55 NE14      30.16F
KITTY HAWK     NOT AVBL
MANTEO         PTSUNNY   73  58  59 NE14      30.15F

$$

NCZ045>047-081-094-103-104-251900-
CENTRAL COAST

CITY           SKY/WX    TMP DP  RH WIND       PRES   REMARKS
FRISCO         CLOUDY    75  59  57 NE12G20   30.12S

$$

NCZ095-097-098-100-101-251900-
SOUTHERN COAST

CITY           SKY/WX    TMP DP  RH WIND       PRES   REMARKS
BEAUFORT       MOSUNNY   78  66  66 NE9G21    30.11F
CEDAR ISLAND   NOT AVBL
JACKSONVILLE   PTSUNNY   79  69  71 E6        30.10F
PINEY ISLAND   PTCLDY   N/A N/A N/A NE16G22   30.12F
WILMINGTON     PTSUNNY   82  72  71 E8        30.09F


$$

NCZ011>013-027>030-043-044-078>080-089-090>093-098-251900-
COASTAL PLAIN

CITY           SKY/WX    TMP DP  RH WIND       PRES   REMARKS
AHOSKIE        SUNNY     71  60  68 E3        30.16F
CLINTON        CLOUDY    78  70  77 NE5       30.12F
ELIZABETHTOWN  MOSUNNY   84  71  65 CALM      30.09F
GOLDSBORO      CLOUDY    75  71  89 NE6       30.12F
GREENVILLE     CLOUDY    73  64  73 E8        30.14F
HAVELOCK       CLOUDY    77  66  68 NE8       30.13F
KENANSVILLE    CLOUDY    77  70  78 CALM      30.12F
KINSTON        CLOUDY    73  68  83 NE8       30.14F
NEW BERN       CLOUDY    76  66  71 NE9       30.13F
RICHLANDS      CLOUDY    78  70  76 N7        30.12F
ROCKY MOUNT    CLOUDY    75  67  76 NE6       30.14F
WASHINGTON     PTSUNNY   75  64  67 NE8       30.13F
WHITEVILLE     NOT AVBL

$$

AMZ130-135-150-152-154-156-158-170-250-252-270-ANZ085-086-088-633-658-670-251900-
MARINE OBSERVATIONS

STATION/POSITION TIME  TEMP    WIND        PRES    WAVE   SWELL
                       AIR SEA DIR/SP/G            HT/PER HT/PER
                 (UTC) (F)     (DEG/KT/KT) (MB)    (FT/S) (FT/S)
CHESAPEAKE LIGHT NOT AVBL
64 E VA BEACH    1750   70 74   20/ 14/ 17 1020.6    5/10   3/10
DUCK             1800   70 77   30/ 12/ 15 1020.5
2 E DUCK         1741      77                N/A     5/11   2/11
OREGON INLET     1800   72 78   30/ 12/ 15 1020.4
13E OREGON INLT  1800      76                N/A     5/ 8   3/ 8
HATTERAS CG      1800   74 80   30/ 12/ 18 1019.4
DIAMOND BUOY     1750   74 85   40/ 17/ 21 1019.2    5/ 8   3/ 8
CAPE LOOKOUT     1800   76      30/ 18/ 20 1019.3
BEAUFORT LAB     1800   76 79   40/ 10/ 16 1019.2
30 SE NEW RVR IN 1808   77 82   70/ 16/ 19 1018.9
30 SE NEW RVR IN 1755      82                N/A     4/ 5   2/11
27 SE WRIGHTSVLE 1808   79 81   60/ 16/ 19 1018.9
5 SE WRIGHTSVLE  1808   78 81   80/ 12/ 17 1019.7
225 S CAPE HAT   1750   82 84   60/ 10/ 12 1016.7    4/10   3/10
41 SE CHARLESTON 1750   82 82   60/ 16/ 17 1016.9    4/10   3/10

$$




USA.gov is the U.S. government's official web portal to all federal, state and local government web resources and services.